Location: Newark
(13.6797°N, 8.5297°E)
Time: 17:52:49
(UTC+00:00)

Altair - Pass Details

Date: 28 January 2020
Orbit: 1502 x 1682 km, 47.2° (Epoch: 22 February)

Event Time Altitude Azimuth Distance (km) Brightness Sun altitude
Rises 04:19:03 0° 210° (SSW) 4,725 9.9 -22.9°
Reaches altitude 10° 04:22:08 10° 206° (SSW) 3,765 9.4 -22.1°
Maximum altitude 04:31:31 60° 129° (SE) 1,817 8.1 -19.9°
Drops below altitude 10° 04:41:15 10° 52° (NE) 3,901 10.1 -17.6°
Sets 04:44:30 0° 49° (NE) 4,905 10.6 -16.9°
